EW3995 Weather Reports


Display with metric or nautical units.
time (UTC)temp
F
wind
direction
speed
MPH
gust
MPH
rain 1hr
in
rain 24hr
in
rain mn
in
humidity
%
barometer
mb
20181118041840 27 135 0.0 1.0 0.00 0.00 0.00 100 1011.6
20181118040840 27 135 1.0 2.0 0.00 0.00 0.00 100 1011.6
20181118035840 27 135 0.0 3.0 0.00 0.00 0.00 100 1011.6
20181118034840 27 135 0.0 2.0 0.00 0.00 0.00 100 1011.6
20181118033840 27 151 0.0 3.0 0.00 0.00 0.00 100 1011.6
20181118032840 27 167 0.0 2.0 0.00 0.00 0.00 100 1011.6
20181118031839 27 122 0.0 3.0 0.00 0.00 0.00 100 1011.6
20181118030840 27 135 0.0 0.0 0.00 0.00 0.00 100 1011.6
20181118025840 28 138 0.0 0.0 0.00 0.00 0.00 100 1011.6
20181118024840 28 158 0.0 2.0 0.00 0.00 0.00 100 1011.6
20181118023839 28 164 0.0 2.0 0.00 0.00 0.00 100 1011.6
20181118022840 28 171 0.0 2.0 0.00 0.00 0.00 100 1011.6
20181118021840 28 151 0.0 1.0 0.00 0.00 0.00 100 1011.6
20181118020840 28 135 0.0 2.0 0.00 0.00 0.00 100 1011.6
20181118015840 28 158 0.0 2.0 0.00 0.00 0.00 100 1011.6
20181118014840 28 169 0.0 1.0 0.00 0.00 0.00 100 1011.6
20181118013840 28 130 0.0 1.0 0.00 0.00 0.00 100 1011.6
20181118012840 28 127 0.0 2.0 0.00 0.00 0.00 100 1011.6
20181118011840 28 142 0.0 2.0 0.00 0.00 0.00 100 1011.6
20181118010709 28 155 0.0 1.0 0.00 0.00 0.00 100 1011.6
20181118005710 28 130 0.0 1.0 0.00 0.00 0.00 100 1011.6
20181118004709 28 155 0.0 1.0 0.00 0.00 0.00 100 1011.6
20181118003709 28 115 0.0 2.0 0.00 0.00 0.00 100 1010.6
20181118002709 28 140 0.0 1.0 0.00 0.00 0.00 100 1011.6
20181118001709 28 177 0.0 2.0 0.00 0.00 0.00 100 1011.6
20181118000710 28 202 1.0 3.0 0.00 0.00 0.00 100 1011.6
20181117235709 28 202 1.0 3.0 0.00 0.00 0.00 100 1011.6
20181117234709 28 202 0.0 3.0 0.00 0.00 0.00 100 1011.6
20181117233709 28 202 0.0 2.0 0.00 0.00 0.00 100 1011.6
20181117232708 28 202 0.0 3.0 0.00 0.00 0.00 100 1011.6
20181117231709 28 202 0.0 1.0 0.00 0.00 0.00 100 1011.6
20181117230709 28 202 0.0 2.0 0.00 0.00 0.00 100 1011.6
20181117225709 28 202 0.0 2.0 0.00 0.00 0.00 100 1011.6
20181117224709 28 202 0.0 1.0 0.00 0.00 0.00 100 1011.6
20181117223708 28 202 0.0 2.0 0.00 0.00 0.00 100 1012.7
20181117222709 28 202 0.0 2.0 0.00 0.00 0.00 100 1012.7
20181117221708 28 202 1.0 2.0 0.00 0.00 0.00 100 1012.7
20181117220709 28 202 0.0 2.0 0.00 0.00 0.00 100 1012.7
20181117215709 29 202 0.0 2.0 0.00 0.00 0.00 100 1012.7
20181117214709 29 202 0.0 3.0 0.00 0.00 0.00 100 1012.7
20181117213709 29 202 0.0 2.0 0.00 0.00 0.00 100 1012.7
20181117212709 29 202 0.0 2.0 0.00 0.00 0.00 100 1012.7
20181117211709 29 202 0.0 2.0 0.00 0.00 0.00 100 1012.7
20181117210708 29 202 0.0 1.0 0.00 0.00 0.00 100 1012.7
20181117205709 29 202 0.0 1.0 0.00 0.00 0.00 100 1013.7
20181117204709 29 202 0.0 2.0 0.00 0.00 0.00 100 1013.7
20181117203709 29 202 0.0 2.0 0.00 0.00 0.00 100 1013.7
20181117202709 29 202 0.0 2.0 0.00 0.00 0.00 100 1013.7
20181117201710 29 202 0.0 3.0 0.00 0.00 0.00 100 1013.7
20181117200709 29 202 0.0 2.0 0.00 0.00 0.00 100 1013.7
20181117195709 29 202 0.0 2.0 0.00 0.00 0.00 100 1013.7
20181117194709 29 202 1.0 2.0 0.00 0.00 0.00 100 1013.7
20181117193709 29 202 0.0 0.0 0.00 0.00 0.00 100 1013.7
20181117192709 29 202 0.0 2.0 0.00 0.00 0.00 100 1014.7
20181117191709 29 202 0.0 1.0 0.00 0.00 0.00 100 1014.7
20181117190709 29 202 0.0 2.0 0.00 0.00 0.00 100 1013.7
20181117185709 29 202 0.0 1.0 0.00 0.00 0.00 100 1013.7
20181117184709 29 202 0.0 1.0 0.00 0.00 0.00 100 1013.7
20181117183709 29 202 0.0 2.0 0.00 0.00 0.00 100 1012.7
20181117182709 29 160 0.0 2.0 0.00 0.00 0.00 100 1012.7
20181117181709 29 196 0.0 3.0 0.00 0.00 0.00 100 1012.7
20181117180709 29 135 0.0 3.0 0.00 0.00 0.00 100 1013.7
20181117175708 29 194 0.0 3.0 0.00 0.00 0.00 100 1013.7
20181117174708 29 164 0.0 3.0 0.00 0.00 0.00 100 1013.7
20181117173709 29 169 0.0 3.0 0.00 0.00 0.00 100 1013.7
20181117172709 29 191 0.0 3.0 0.00 0.00 0.00 100 1013.7
20181117171709 29 182 2.0 4.0 0.00 0.00 0.00 100 1013.7
20181117170708 29 180 0.0 2.0 0.00 0.00 0.00 100 1014.7
20181117165709 29 184 1.0 2.0 0.00 0.00 0.00 100 1014.7
20181117164708 29 202 0.0 3.0 0.00 0.00 0.00 100 1014.7
20181117163709 29 207 1.0 3.0 0.00 0.00 0.00 99 1014.7
20181117162708 29 187 0.0 2.0 0.00 0.00 0.00 99 1014.7
20181117161538 29 198 0.0 3.0 0.00 0.00 0.00 99 1014.7
20181117160538 29 162 0.0 2.0 0.00 0.00 0.00 99 1014.7
20181117155541 29 180 0.0 3.0 0.00 0.00 0.00 99 1014.7
20181117154540 29 159 0.0 2.0 0.00 0.00 0.00 99 1014.7
20181117153538 29 223 0.0 2.0 0.00 0.00 0.00 99 1015.8
20181117152539 29 208 0.0 2.0 0.00 0.00 0.00 98 1015.8
20181117151408 29 186 0.0 2.0 0.00 0.00 0.00 98 1015.8
20181117150408 30 209 0.0 1.0 0.00 0.00 0.00 98 1015.8
20181117145408 30 175 1.0 4.0 0.00 0.00 0.00 98 1015.8
20181117144409 30 248 0.0 1.0 0.00 0.00 0.00 98 1015.8
20181117143408 30 205 0.0 0.0 0.00 0.00 0.00 98 1015.8
20181117142408 30 194 0.0 3.0 0.00 0.00 0.00 97 1015.8
20181117141408 30 170 0.0 2.0 0.00 0.00 0.00 97 1014.7
20181117140408 30 166 0.0 1.0 0.00 0.00 0.00 97 1014.7
20181117135408 30 178 0.0 0.0 0.00 0.00 0.00 97 1014.7
20181117134409 30 162 0.0 2.0 0.00 0.00 0.00 96 1014.7
20181117133409 30 292 0.0 1.0 0.00 0.00 0.00 96 1014.7
20181117132408 30 141 1.0 3.0 0.00 0.00 0.00 96 1015.8
20181117131409 30 248 0.0 1.0 0.00 0.00 0.00 96 1015.8
20181117130408 30 248 0.0 1.0 0.00 0.00 0.00 94 1015.8
20181117125408 30 248 0.0 1.0 0.00 0.00 0.00 94 1015.8
20181117124409 30 248 1.0 1.0 0.00 0.00 0.00 94 1015.8
20181117123238 30 248 0.0 0.0 0.00 0.00 0.00 94 1015.8
20181117122239 30 248 0.0 0.0 0.00 0.00 0.00 93 1016.8
20181117121239 30 248 0.0 0.0 0.00 0.00 0.00 93 1016.8
20181117120239 31 248 0.0 0.0 0.00 0.00 0.00 93 1016.8
20181117115238 31 248 0.0 0.0 0.00 0.00 0.00 93 1017.9
20181117114108 31 248 0.0 1.0 0.00 0.00 0.00 93 1017.9
20181117113108 31 248 0.0 0.0 0.00 0.00 0.00 93 1017.9
20181117112109 31 248 0.0 0.0 0.00 0.00 0.00 92 1017.9
20181117111108 31 248 0.0 0.0 0.00 0.00 0.00 92 1017.9
20181117110108 31 248 0.0 1.0 0.00 0.00 0.00 91 1017.9
20181117105108 32 248 0.0 2.0 0.00 0.00 0.00 91 1017.9
20181117104108 32 248 0.0 1.0 0.00 0.00 0.00 91 1017.9
20181117103108 32 248 0.0 1.0 0.00 0.00 0.00 91 1017.9
20181117102109 33 248 1.0 2.0 0.00 0.00 0.00 91 1017.9
20181117101108 33 248 0.0 2.0 0.00 0.00 0.00 91 1017.9
20181117100108 33 248 0.0 2.0 0.00 0.00 0.00 90 1017.9
20181117095108 33 248 0.0 1.0 0.00 0.00 0.00 90 1017.9
20181117094108 33 248 0.0 2.0 0.00 0.00 0.00 89 1017.9
20181117093108 34 248 1.0 2.0 0.00 0.00 0.00 90 1017.9
20181117092108 34 248 0.0 2.0 0.00 0.00 0.00 90 1016.8
20181117091108 34 248 0.0 1.0 0.00 0.00 0.00 89 1017.9
20181117090108 34 248 0.0 2.0 0.00 0.00 0.00 89 1017.9
20181117085109 35 248 0.0 3.0 0.00 0.00 0.00 90 1017.9
20181117084108 35 248 0.0 2.0 0.00 0.00 0.00 90 1017.9
20181117083108 35 248 1.0 2.0 0.00 0.00 0.00 92 1017.9
20181117082108 35 248 0.0 2.0 0.00 0.00 0.00 93 1017.9
20181117081108 36 248 0.0 2.0 0.00 0.00 0.00 96 1017.9
20181117080108 35 248 0.0 1.0 0.00 0.00 0.00 98 1017.9
20181117075108 34 248 0.0 1.0 0.00 0.00 0.00 97 1018.9
20181117074108 33 248 0.0 2.0 0.00 0.00 0.00 98 1018.9
20181117073108 33 248 0.0 2.0 0.00 0.00 0.00 98 1018.9
20181117072108 33 248 0.0 4.0 0.00 0.00 0.00 98 1018.9
20181117071109 33 248 0.0 2.0 0.00 0.00 0.00 99 1018.9
20181117070108 33 248 0.0 2.0 0.00 0.00 0.00 100 1018.9
20181117065109 33 248 0.0 1.0 0.00 0.00 0.00 100 1018.9
20181117064109 33 248 0.0 1.0 0.00 0.00 0.00 100 1018.9
20181117063109 32 248 0.0 1.0 0.00 0.00 0.00 100 1018.9
20181117061939 32 248 0.0 2.0 0.00 0.00 0.00 100 1019.9
20181117060939 31 248 0.0 1.0 0.00 0.00 0.00 100 1019.9
20181117055939 31 248 0.0 2.0 0.00 0.00 0.00 100 1019.9
20181117054939 30 248 0.0 0.0 0.00 0.00 0.00 100 1019.9
20181117053939 30 248 0.0 1.0 0.00 0.00 0.00 100 1019.9
20181117052939 30 248 0.0 0.0 0.00 0.00 0.00 100 1019.9
20181117051939 30 248 0.0 2.0 0.00 0.00 0.00 100 1019.9
20181117050939 30 248 0.0 2.0 0.00 0.00 0.00 100 1019.9
20181117045939 29 248 0.0 0.0 0.00 0.00 0.00 100 1019.9
20181117044939 29 248 0.0 1.0 0.00 0.00 0.00 100 1019.9
20181117043939 29 248 0.0 2.0 0.00 0.00 0.00 100 1019.9
20181117042808 29 248 0.0 1.0 0.00 0.00 0.00 100 1019.9